Time,TemperatureF,DewpointF,PressureIn,WindDirection,WindDirectionDegrees,WindSpeedMPH,WindSpeedGustMPH,Humidity,HourlyPrecipIn,Conditions,Clouds,dailyrainin,SoftwareType,DateUTC
2013-05-02 00:07:00,55.8,38.0,30.08,SE,134,0.0,0.0,51,0.00,,,0.00,weatherlink.com 1.10,2013-05-02 07:07:00,
2013-05-02 00:22:00,54.9,39.0,30.08,SE,133,0.0,0.0,56,0.00,,,0.00,weatherlink.com 1.10,2013-05-02 07:22:00,
2013-05-02 00:37:00,54.5,40.0,30.08,ESE,117,0.0,0.0,59,0.00,,,0.00,weatherlink.com 1.10,2013-05-02 07:37:00,
2013-05-02 00:52:00,54.2,40.0,30.08,ESE,117,0.0,0.0,60,0.00,,,0.00,weatherlink.com 1.10,2013-05-02 07:52:00,
2013-05-02 01:07:00,54.6,41.0,30.08,East,84,0.0,0.0,60,0.00,,,0.00,weatherlink.com 1.10,2013-05-02 08:07:00,
2013-05-02 01:22:00,54.1,41.0,30.08,SE,138,0.0,0.0,61,0.00,,,0.00,weatherlink.com 1.10,2013-05-02 08:22:00,
2013-05-02 01:37:00,53.7,40.0,30.08,East,98,0.0,0.0,61,0.00,,,0.00,weatherlink.com 1.10,2013-05-02 08:37:00,
2013-05-02 01:52:00,53.0,39.0,30.09,WSW,239,0.0,0.0,60,0.00,,,0.00,weatherlink.com 1.10,2013-05-02 08:52:00,
2013-05-02 02:07:00,51.8,39.0,30.09,SSW,212,0.0,0.0,62,0.00,,,0.00,weatherlink.com 1.10,2013-05-02 09:07:00,
2013-05-02 02:23:00,50.8,39.0,30.09,SW,232,0.0,0.0,65,0.00,,,0.00,weatherlink.com 1.10,2013-05-02 09:23:00,
2013-05-02 02:38:00,50.0,40.0,30.09,South,170,0.0,0.0,68,0.00,,,0.00,weatherlink.com 1.10,2013-05-02 09:38:00,
2013-05-02 02:53:00,50.2,40.0,30.09,North,4,0.0,0.0,69,0.00,,,0.00,weatherlink.com 1.10,2013-05-02 09:53:00,
2013-05-02 03:08:00,50.5,40.0,30.09,ESE,107,0.0,0.0,67,0.00,,,0.00,weatherlink.com 1.10,2013-05-02 10:08:00,
2013-05-02 03:23:00,50.4,40.0,30.09,SW,226,0.0,0.0,68,0.00,,,0.00,weatherlink.com 1.10,2013-05-02 10:23:00,
2013-05-02 03:38:00,49.9,40.0,30.09,SE,136,0.0,0.0,70,0.00,,,0.00,weatherlink.com 1.10,2013-05-02 10:38:00,
2013-05-02 03:53:00,50.0,41.0,30.10,ENE,62,0.0,0.0,70,0.00,,,0.00,weatherlink.com 1.10,2013-05-02 10:53:00,
2013-05-02 04:08:00,49.7,40.0,30.10,ENE,60,0.0,0.0,70,0.00,,,0.00,weatherlink.com 1.10,2013-05-02 11:08:00,
2013-05-02 04:23:00,49.5,40.0,30.10,NNW,334,0.0,0.0,71,0.00,,,0.00,weatherlink.com 1.10,2013-05-02 11:23:00,
2013-05-02 04:38:00,49.3,40.0,30.10,ENE,62,0.0,0.0,70,0.00,,,0.00,weatherlink.com 1.10,2013-05-02 11:38:00,
2013-05-02 04:53:00,49.1,40.0,30.11,SSE,153,0.0,0.0,71,0.00,,,0.00,weatherlink.com 1.10,2013-05-02 11:53:00,
2013-05-02 05:08:00,49.2,40.0,30.11,North,11,0.0,0.0,70,0.00,,,0.00,weatherlink.com 1.10,2013-05-02 12:08:00,
2013-05-02 05:23:00,49.1,39.0,30.11,East,86,0.0,0.0,69,0.00,,,0.00,weatherlink.com 1.10,2013-05-02 12:23:00,
2013-05-02 05:38:00,48.1,39.0,30.11,SSE,156,0.0,0.0,72,0.00,,,0.00,weatherlink.com 1.10,2013-05-02 12:38:00,
2013-05-02 05:53:00,48.2,40.0,30.11,ENE,75,0.0,0.0,72,0.00,,,0.00,weatherlink.com 1.10,2013-05-02 12:53:00,
2013-05-02 06:08:00,47.6,39.0,30.12,SW,214,0.0,0.0,73,0.00,,,0.00,weatherlink.com 1.10,2013-05-02 13:08:00,
2013-05-02 06:24:00,47.2,39.0,30.12,SSW,208,0.0,0.0,74,0.00,,,0.00,weatherlink.com 1.10,2013-05-02 13:24:00,
2013-05-02 06:38:00,47.7,40.0,30.12,ESE,113,0.0,0.0,74,0.00,,,0.00,weatherlink.com 1.10,2013-05-02 13:38:00,
2013-05-02 06:53:00,48.7,41.0,30.13,ESE,113,0.0,0.0,75,0.00,,,0.00,weatherlink.com 1.10,2013-05-02 13:53:00,
2013-05-02 07:08:00,51.4,42.0,30.13,ESE,113,0.0,0.0,71,0.00,,,0.00,weatherlink.com 1.10,2013-05-02 14:08:00,
2013-05-02 07:23:00,53.0,43.0,30.14,SW,217,0.0,0.0,68,0.00,,,0.00,weatherlink.com 1.10,2013-05-02 14:23:00,
2013-05-02 07:38:00,55.0,42.0,30.14,SW,217,0.0,0.0,63,0.00,,,0.00,weatherlink.com 1.10,2013-05-02 14:38:00,
2013-05-02 07:53:00,57.4,44.0,30.14,NE,40,0.0,0.0,61,0.00,,,0.00,weatherlink.com 1.10,2013-05-02 14:53:00,
2013-05-02 08:08:00,59.6,45.0,30.14,NE,39,0.0,0.0,58,0.00,,,0.00,weatherlink.com 1.10,2013-05-02 15:08:00,
2013-05-02 08:23:00,61.1,45.0,30.13,WNW,300,0.0,0.0,55,0.00,,,0.00,weatherlink.com 1.10,2013-05-02 15:23:00,
2013-05-02 08:38:00,61.8,44.0,30.14,West,267,0.0,0.0,53,0.00,,,0.00,weatherlink.com 1.10,2013-05-02 15:38:00,
2013-05-02 08:53:00,63.4,46.0,30.14,SSW,208,1.0,3.0,53,0.00,,,0.00,weatherlink.com 1.10,2013-05-02 15:53:00,
2013-05-02 09:08:00,65.0,47.0,30.14,WNW,293,1.0,3.0,53,0.00,,,0.00,weatherlink.com 1.10,2013-05-02 16:08:00,
2013-05-02 09:24:00,66.6,48.0,30.14,South,169,3.0,4.0,51,0.00,,,0.00,weatherlink.com 1.10,2013-05-02 16:24:00,
2013-05-02 09:39:00,67.6,47.0,30.14,WSW,252,2.0,5.0,48,0.00,,,0.00,weatherlink.com 1.10,2013-05-02 16:39:00,
2013-05-02 09:54:00,69.5,46.0,30.14,WSW,240,2.0,6.0,43,0.00,,,0.00,weatherlink.com 1.10,2013-05-02 16:54:00,
2013-05-02 10:09:00,71.2,47.0,30.14,SW,214,1.0,6.0,43,0.00,,,0.00,weatherlink.com 1.10,2013-05-02 17:09:00,
2013-05-02 10:24:00,73.0,48.0,30.14,WNW,293,1.0,6.0,42,0.00,,,0.00,weatherlink.com 1.10,2013-05-02 17:24:00,
2013-05-02 10:39:00,75.5,47.0,30.14,SSE,152,1.0,5.0,36,0.00,,,0.00,weatherlink.com 1.10,2013-05-02 17:39:00,
2013-05-02 10:54:00,77.3,44.0,30.14,WSW,240,1.0,5.0,30,0.00,,,0.00,weatherlink.com 1.10,2013-05-02 17:54:00,
2013-05-02 11:09:00,78.6,43.0,30.14,SW,219,3.0,4.0,28,0.00,,,0.00,weatherlink.com 1.10,2013-05-02 18:09:00,
2013-05-02 11:24:00,79.8,40.0,30.14,SSW,201,4.0,4.0,24,0.00,,,0.00,weatherlink.com 1.10,2013-05-02 18:24:00,
2013-05-02 11:39:00,81.4,43.0,30.14,WSW,249,1.0,4.0,26,0.00,,,0.00,weatherlink.com 1.10,2013-05-02 18:39:00,
2013-05-02 11:54:00,82.4,45.0,30.14,SW,215,3.0,6.0,27,0.00,,,0.00,weatherlink.com 1.10,2013-05-02 18:54:00,
2013-05-02 12:09:00,84.1,46.0,30.14,NW,307,3.0,6.0,26,0.00,,,0.00,weatherlink.com 1.10,2013-05-02 19:09:00,
2013-05-02 12:24:00,84.1,45.0,30.13,SSW,197,1.0,6.0,25,0.00,,,0.00,weatherlink.com 1.10,2013-05-02 19:24:00,
2013-05-02 12:39:00,86.1,45.0,30.12,SW,230,2.0,8.0,24,0.00,,,0.00,weatherlink.com 1.10,2013-05-02 19:39:00,
2013-05-02 12:54:00,86.5,46.0,30.12,WSW,239,4.0,7.0,24,0.00,,,0.00,weatherlink.com 1.10,2013-05-02 19:54:00,
2013-05-02 13:09:00,87.6,45.0,30.12,SW,228,5.0,9.0,23,0.00,,,0.00,weatherlink.com 1.10,2013-05-02 20:09:00,
2013-05-02 13:24:00,88.2,45.0,30.12,South,184,6.0,10.0,22,0.00,,,0.00,weatherlink.com 1.10,2013-05-02 20:24:00,
2013-05-02 13:39:00,88.9,45.0,30.11,SE,127,3.0,8.0,22,0.00,,,0.00,weatherlink.com 1.10,2013-05-02 20:39:00,
2013-05-02 13:54:00,89.6,42.0,30.11,SSW,198,2.0,7.0,19,0.00,,,0.00,weatherlink.com 1.10,2013-05-02 20:54:00,
2013-05-02 14:09:00,90.4,43.0,30.11,WNW,295,2.0,6.0,19,0.00,,,0.00,weatherlink.com 1.10,2013-05-02 21:09:00,
2013-05-02 14:25:00,91.2,39.0,30.11,WSW,238,2.0,8.0,16,0.00,,,0.00,weatherlink.com 1.10,2013-05-02 21:25:00,
2013-05-02 14:40:00,90.6,39.0,30.10,SW,230,5.0,7.0,16,0.00,,,0.00,weatherlink.com 1.10,2013-05-02 21:40:00,
2013-05-02 14:56:00,90.9,40.0,30.10,WSW,248,2.0,10.0,17,0.00,,,0.00,weatherlink.com 1.10,2013-05-02 21:56:00,
2013-05-02 15:10:00,91.4,39.0,30.09,South,177,6.0,13.0,16,0.00,,,0.00,weatherlink.com 1.10,2013-05-02 22:10:00,
2013-05-02 15:25:00,91.2,41.0,30.09,NW,309,5.0,7.0,17,0.00,,,0.00,weatherlink.com 1.10,2013-05-02 22:25:00,
2013-05-02 15:40:00,91.0,40.0,30.09,SW,218,8.0,11.0,17,0.00,,,0.00,weatherlink.com 1.10,2013-05-02 22:40:00,
2013-05-02 15:55:00,91.4,42.0,30.08,SSW,198,4.0,8.0,18,0.00,,,0.00,weatherlink.com 1.10,2013-05-02 22:55:00,
2013-05-02 16:10:00,91.5,42.0,30.08,West,265,3.0,8.0,18,0.00,,,0.00,weatherlink.com 1.10,2013-05-02 23:10:00,
2013-05-02 16:25:00,89.7,42.0,30.08,West,264,5.0,13.0,19,0.00,,,0.00,weatherlink.com 1.10,2013-05-02 23:25:00,
2013-05-02 16:40:00,89.5,41.0,30.08,WNW,294,3.0,9.0,18,0.00,,,0.00,weatherlink.com 1.10,2013-05-02 23:40:00,
2013-05-02 16:55:00,89.7,34.0,30.08,West,277,3.0,9.0,14,0.00,,,0.00,weatherlink.com 1.10,2013-05-02 23:55:00,
2013-05-02 17:10:00,89.0,36.0,30.08,West,273,3.0,9.0,15,0.00,,,0.00,weatherlink.com 1.10,2013-05-03 00:10:00,
2013-05-02 17:25:00,88.9,36.0,30.08,SW,218,5.0,10.0,15,0.00,,,0.00,weatherlink.com 1.10,2013-05-03 00:25:00,
2013-05-02 17:40:00,88.0,36.0,30.08,South,180,6.0,11.0,16,0.00,,,0.00,weatherlink.com 1.10,2013-05-03 00:40:00,
2013-05-02 17:55:00,86.9,42.0,30.08,SW,214,7.0,10.0,21,0.00,,,0.00,weatherlink.com 1.10,2013-05-03 00:55:00,
2013-05-02 18:10:00,85.3,41.0,30.07,SW,215,9.0,10.0,21,0.00,,,0.00,weatherlink.com 1.10,2013-05-03 01:10:00,
2013-05-02 18:25:00,84.2,40.0,30.07,SW,216,7.0,9.0,21,0.00,,,0.00,weatherlink.com 1.10,2013-05-03 01:25:00,
2013-05-02 18:40:00,83.0,40.0,30.07,SW,214,4.0,8.0,22,0.00,,,0.00,weatherlink.com 1.10,2013-05-03 01:40:00,
2013-05-02 18:55:00,82.3,40.0,30.07,SW,214,4.0,6.0,22,0.00,,,0.00,weatherlink.com 1.10,2013-05-03 01:55:00,
2013-05-02 19:10:00,80.9,37.0,30.07,SSW,211,2.0,7.0,21,0.00,,,0.00,weatherlink.com 1.10,2013-05-03 02:10:00,
2013-05-02 19:25:00,78.8,37.0,30.06,SSW,205,5.0,9.0,22,0.00,,,0.00,weatherlink.com 1.10,2013-05-03 02:25:00,
2013-05-02 19:40:00,77.3,38.0,30.06,SW,226,1.0,6.0,24,0.00,,,0.00,weatherlink.com 1.10,2013-05-03 02:40:00,
2013-05-02 19:55:00,75.8,38.0,30.06,WSW,245,1.0,3.0,25,0.00,,,0.00,weatherlink.com 1.10,2013-05-03 02:55:00,
2013-05-02 20:10:00,73.9,38.0,30.07,SW,218,0.0,0.0,27,0.00,,,0.00,weatherlink.com 1.10,2013-05-03 03:10:00,
2013-05-02 20:25:00,71.2,40.0,30.07,SSE,160,1.0,2.0,32,0.00,,,0.00,weatherlink.com 1.10,2013-05-03 03:25:00,
2013-05-02 20:40:00,69.2,38.0,30.07,SSW,212,0.0,0.0,32,0.00,,,0.00,weatherlink.com 1.10,2013-05-03 03:40:00,
2013-05-02 20:55:00,68.0,39.0,30.07,SSE,163,0.0,0.0,35,0.00,,,0.00,weatherlink.com 1.10,2013-05-03 03:55:00,
2013-05-02 21:10:00,66.9,40.0,30.07,SSE,162,0.0,0.0,37,0.00,,,0.00,weatherlink.com 1.10,2013-05-03 04:10:00,
2013-05-02 21:25:00,66.0,37.0,30.07,SE,139,0.0,0.0,34,0.00,,,0.00,weatherlink.com 1.10,2013-05-03 04:25:00,
2013-05-02 21:40:00,65.0,37.0,30.08,SE,139,0.0,0.0,35,0.00,,,0.00,weatherlink.com 1.10,2013-05-03 04:40:00,
2013-05-02 21:55:00,63.2,37.0,30.08,SE,139,0.0,0.0,38,0.00,,,0.00,weatherlink.com 1.10,2013-05-03 04:55:00,
2013-05-02 22:10:00,64.1,36.0,30.08,SE,139,0.0,0.0,35,0.00,,,0.00,weatherlink.com 1.10,2013-05-03 05:10:00,
2013-05-02 22:25:00,64.1,36.0,30.08,SE,139,0.0,0.0,36,0.00,,,0.00,weatherlink.com 1.10,2013-05-03 05:25:00,
2013-05-02 22:40:00,64.0,36.0,30.08,ENE,75,0.0,0.0,36,0.00,,,0.00,weatherlink.com 1.10,2013-05-03 05:40:00,
2013-05-02 22:55:00,63.7,37.0,30.07,East,80,0.0,0.0,37,0.00,,,0.00,weatherlink.com 1.10,2013-05-03 05:55:00,
2013-05-02 23:10:00,62.3,36.0,30.08,East,79,0.0,0.0,37,0.00,,,0.00,weatherlink.com 1.10,2013-05-03 06:10:00,
2013-05-02 23:25:00,60.6,35.0,30.07,East,79,0.0,0.0,39,0.00,,,0.00,weatherlink.com 1.10,2013-05-03 06:25:00,
2013-05-02 23:40:00,60.7,36.0,30.07,NE,51,0.0,0.0,40,0.00,,,0.00,weatherlink.com 1.10,2013-05-03 06:40:00,
2013-05-02 23:55:00,60.1,37.0,30.07,NE,51,0.0,0.0,43,0.00,,,0.00,weatherlink.com 1.10,2013-05-03 06:55:00,